Regional Weather Roundup
Issued by NWS Pendleton, OR

Home | Current Version | Previous Version | Text Only | Print | Product List | Glossary On
Versions: 1 2 3 4 5 6 7 8 9 10 11 12 13 14 15 16 17 18 19 20 21 22 23 24 25 26 27 28 29 30 31 32 33 34 35 36 37 38 39 40 41 42 43 44 45 46 47 48 49 50
000
ASUS46 KPDT 282225
RWRPDT
PENDLETON REGIONAL WEATHER ROUNDUP
NATIONAL WEATHER SERVICE PENDLETON OREGON
300 PM PDT FRI AUG 28 2015

NOTE: FAIR INDICATES FEW OR NO CLOUDS BELOW 12,000 FEET WITH NO
SIGNIFICANT WEATHER AND/OR OBSTRUCTIONS TO VISIBILITY.

# INDICATES UNOFFICIAL STATION AND DATA

WAZ520-282310-
EAST SLOPES OF WASHINGTON CASCADES

CITY            SKY/WX      TMP DP  RH  WIND    PRES   REMARKS
#BULLFROG 2SW   N/A         73  50  44  N5      27.52F
#BUMPING DAM    N/A         67  N/A N/A S7      N/A
#CLE ELUM HS    N/A         75  48  38  SW3     29.86F
#CLE ELUM LAKE  N/A         73  49  43  CALM    29.77F
#CLIFFDEL 2NW   N/A         78  47  34  W6      N/A
#GLENWOOD       N/A         76  54  46  W2      29.81F
#MANASTASH CYN  N/A         70  52  53  CALM    29.92F
#NELSON         N/A         75  52  45  CALM    29.81F
#NELSON 3SW     N/A         72  51  48  CALM    30.00F
#NILE           N/A         76  51  42  CALM    29.08F
#RONALD 2NW     N/A         74  50  43  NE1     29.82F
#SNOWDEN        N/A         72  34  25  NW3     N/A
#TEANAWAY 4NE   N/A         76  54  46  SW2     N/A
#TROUT LAKE 1NE N/A         76  52  43  SW10    29.82F
$$

WAZ521-282310-
SIMCOE HIGHLANDS

CITY            SKY/WX      TMP DP  RH  WIND    PRES   REMARKS
#BICKLETON HS   N/A         74  36  25  SW6     N/A
#CENTERVILLE 4W N/A         78  52  40  CALM    29.65F
#CENTERVILLE 1SWN/A         78  51  39  W5      29.78F
#GOLDENDALE     N/A         77  51  40  W5      N/A
#GOLDENDALE 1NE N/A         77  36  23  CALM    N/A
#GOLDENDALE 5WNWN/A         78  53  42  W6      29.79F
#GOODNOE HILLS  N/A         83  52  34  NW9     N/A
#LYLE 6NE       N/A         77  56  48  CALM    29.78F
$$

WAZ026-282310-
KITTITAS VALLEY

CITY            SKY/WX      TMP DP  RH  WIND    PRES   REMARKS
ELLENSBURG AP   MOCLDY      81  49  33  VRB3    29.90F
YTC-OPS AREA    MOCLDY      71  48  44  S10     29.94F
#ELLENSBURG CWU N/A         77  52  42  E5      29.76F
#ELLENSBURG 3NE N/A         76  54  46  CALM    29.89F
#ELLENSBURG 1E  N/A         79  55  44  CALM    N/A
#KITTITAS 4N    N/A         79  53  41  NW3     29.89F
#KITTITAS 3S    N/A         74  57  55  CALM    29.80F
#THORP 6N       N/A         74  51  44  E7      29.82S
$$

WAZ027-282310-
YAKIMA VALLEY

CITY            SKY/WX      TMP DP  RH  WIND    PRES   REMARKS
SUNNYSIDE AP    CLOUDY      82  57  43  NE7     29.85F
YAKIMA AIRPORT  MOCLDY      83  54  37  S9      29.87F
YAKIMA-VAGABOND MOCLDY      79  52  39  S9      29.88F
#DONALD 2NE     N/A         87  40  19  CALM    28.73
#GRANDVIEW      N/A         82  51  34  CALM    29.82F
#MABTON         N/A         84  57  40  NW3     29.83F
#MOXEE 2E       N/A         78  36  22  E2      29.79F
#NACHES 2SW     N/A         77  59  54  SE3     29.91F
#OUTLOOK DOT    N/A         N/A N/A N/A E7      N/A
#SELAH 8E       N/A         78  51  39  S7      N/A
#TERRACE HTS    N/A         78  57  48  S1      29.77F
#TOPPENISH      N/A         79  56  45  N1      29.73F
#WAPATO 4NE     N/A         87  40  19  CALM    28.73
#W YAKIMA       N/A         78  56  47  E2      29.80F
#WHITE SWAN 5E  N/A         79  59  50  NE6     29.81F
#WILEY CITY 3W  N/A         80  46  30  S2      29.83F
$$

WAZ028-282310-
LOWER COLUMBIA BASIN...WASHINGTON

CITY            SKY/WX      TMP DP  RH  WIND    PRES   REMARKS
PASCO           CLOUDY      86  48  27  SW5     29.85F SMOKE
#BENTON CITY    N/A         83  52  34  E1      29.72F
#CONNELL 5N     N/A         86  49  28  SW7     29.82F
#CONNELL 5NW    N/A         82  53  37  SW3     29.79F
#ELTOPIA 6NW    N/A         80  59  49  CALM    28.85F
#KAHLOTUS       N/A         83  46  27  W1      29.82F
#KENNEWICK      N/A         73  50  44  N5      27.52F
#KENNEWICK 3S   N/A         83  52  34  CALM    29.82F
#PATERSON       N/A         84  53  34  NE1     29.80F
#PROSSER        N/A         85  44  24  S7      29.80F
#SAGEMOOR 2W    N/A         86  53  32  CALM    29.68F
#TOUCHET 2S     N/A         87  51  29  N2      29.78F
#WEST PASCO     N/A         87  56  35  CALM    29.81F
$$

WAZ029-282310-
FOOTHILLS OF THE BLUES...WASHINGTON

CITY            SKY/WX      TMP DP  RH  WIND    PRES   REMARKS
WALLA WALLA AP  CLOUDY      87  44  22  N6      29.86F
#DAYTON SCHOOL  N/A         83  45  26  NE2     29.88F
#LOWDEN 2SE     N/A         87  52  30  CALM    29.78F
#PLEASANT VIEW 1N/A         82  45  27  E1      29.85F
#PRESCOTT       N/A         85  50  30  CALM    29.80F
#SUDBURY        N/A         88  N/A N/A CALM    N/A
#WHITMAN COLLEGEN/A         84  51  32  E5      29.84F
#WAITSBURG 8N   N/A         83  29  14  N3      29.71F
#WALLA WALLA U  N/A         86  51  30  CALM    29.78F
#WHITMAN MISSIONN/A         86  53  32  CALM    29.80F
$$

WAZ030-282310-
BLUE MOUNTAINS...WASHINGTON

CITY            SKY/WX      TMP DP  RH  WIND    PRES   REMARKS
$$

ORZ009-041-WAZ024-282310-
COLUMBIA RIVER GORGE

CITY            SKY/WX      TMP DP  RH  WIND    PRES   REMARKS
THE DALLES AP   CLOUDY      83  52  34  VRB5    29.84F
#ARLINGTON AIRPON/A         81  50  34  W3      N/A
#MOSIER 1S      N/A         82  42  24  NW6     29.87F

$$

ORZ510-282310-
NORTH CENTRAL OREGON

CITY            SKY/WX      TMP DP  RH  WIND    PRES   REMARKS
#CHENOWITH 1W   N/A         77  51  40  NW15    N/A
#DUFUR 9E       N/A         70  50  49  N7      29.85F
#GRASS VALLEY 1SN/A         79  48  34  NW7     29.83F
#MAUPIN SCHOOL  N/A         84  51  32  N6      29.85F
#MORO SCHOOL    N/A         75  57  54  NW9     29.91F
#SHANIKO 4NW    N/A         78  40  26  S6      30.00F
#TYGH VALLEY 2NEN/A         81  52  37  N12     29.78F
#WAPANITIA AIRPON/A         82  47  29  N6      29.78F
#WASCO AIRPORT  N/A         78  46  32  W6      N/A
#WASCO 5NE      N/A         78  52  40  N7      29.80F
$$

ORZ511-282310-
CENTRAL OREGON

CITY            SKY/WX      TMP DP  RH  WIND    PRES   REMARKS
BEND AIRPORT    CLOUDY      81  37  21  SW8     29.95F
PRINEVILLE AP   CLOUDY      82  37  20  S14G24  29.93F
REDMOND AIRPORT CLOUDY      83  40  22  S12     29.93F
#BEND 1SW       N/A         79  44  29  SW1     N/A
#BEND-AWBREY    N/A         79  44  29  SW6     29.76F
#BEND-KIM LN    N/A         80  47  31  S2      29.93F
#CULVER         N/A         84  44  25  S6      29.86F
#LAKE BILLY CHINN/A         84   6   5  E3      29.91F
#MADRAS         N/A         80  50  35  NE5     N/A
#POWELL BUTTE 3EN/A         81  42  25  S9      N/A
#POWELL BUTTE   N/A         82  42  24  W6      29.58F
#WARM SPRINGS   N/A         85  48  28  N3      29.83F

$$


ORZ509-282310-
EAST SLOPES OF OREGON CASCADES

CITY            SKY/WX      TMP DP  RH  WIND    PRES   REMARKS
#CAMP SHERMAN   N/A         82  41  23  CALM    29.73F
#LA PINE 4NW    N/A         76  45  33  S3      29.81F
#SISTERS AIRPOR N/A         81  51  35  N5      30.17S
#SISTERS 1NW    N/A         81  39  22  SW7     N/A
#SISTERS 3N     N/A         81  45  28  SE2     29.93F
#SUNRIVER       N/A         77  45  32  SW2     29.67F
#TUMALO 3W      N/A         79  43  28  S7      29.65F

$$

ORZ044-282310-
LOWER COLUMBIA BASIN...OREGON

CITY            SKY/WX      TMP DP  RH  WIND    PRES   REMARKS
HERMISTON       CLOUDY      84  49  30  N7      29.84F
#BOARDMAN SCHOOLN/A         82  51  34  W1      29.83F
#BOARDMAN 8SW   N/A         82  57  43  W2      29.80F
#ECHO 8SW       N/A         83  51  33  N5      29.85F
#IONE SCHOOL    N/A         83  48  30  CALM    29.83F
#IRRIGON 4NW    N/A         85  49  29  W3      N/A
#UMATILLA SCHOOLN/A         88  62  42  NW5     29.88F
#UMATILLA       N/A         86  52  31  CALM    29.74F
$$

ORZ507-282310-
NORTHERN FOOTHILLS OF THE BLUES

CITY            SKY/WX      TMP DP  RH  WIND    PRES   REMARKS
PENDLETON AIRPT CLOUDY      86  42  21  NE7     29.86F
#ADAMS 3WNW     N/A         86  46  25  N1      29.78F
#ATHENA         N/A         85  46  26  CALM    29.81F
#CAYUSE         N/A         88  48  25  E2      29.76F
#HELIX SCHOOL   N/A         84  45  26  NE5     29.80F
#HELIX 3N       N/A         83  44  25  N7      29.87F
#HOLDMAN 6E     N/A         84  44  25  S2      29.61F
#M-F GROVE ELEM N/A         85  44  24  N3      29.83F
#M-FREEWATER 5SEN/A         85  53  33  W7      29.85F
#PENDLETON DNTN N/A         88  46  23  CALM    29.87F
#PDT AQUATIC CTRN/A         85  47  27  VRB3    29.83F
#PDT SUNRIDGE   N/A         87  47  25  CALM    29.85F
#PENDLETON 7NW  N/A         86  53  32  N1      32.07S
#TUTUILLA       N/A         86  49  28  N1      29.80F
#UMAPINE 2E     N/A         87  55  34  N2      29.80F
#WESTON SCHOOL  N/A         84  41  22  E5      29.81F

$$

ORZ508-282310-
SOUTHERN FOOTHILLS OF THE BLUES

CITY            SKY/WX      TMP DP  RH  WIND    PRES   REMARKS
#AJAX           N/A         80  43  27  N6      29.85F
#CONDON SCHOOL  N/A         80  47  31  N5      29.90F
#CONDON 5W      N/A         79  39  24  CALM    29.93F
#FOSSIL SCHOOL  N/A         66  51  58  CALM    29.94S
#HEPPNER EOC    N/A         83  47  28  N5      29.72F
#HEPPNER 4NE    N/A         76  48  37  N5      29.78F
#LEXINGTON 2SE  N/A         82  49  32  N7      29.84F
#OLEX 4N        N/A         82  52  35  CALM    29.85F
#RUGGS 5NE      N/A         80  46  30  N7      30.14S
#RUGGS 2SW      N/A         78  45  31  N7      29.80F

$$

ORZ502-503-282310-
BLUE MOUNTAINS

CITY            SKY/WX      TMP DP  RH  WIND    PRES   REMARKS
MEACHAM         CLOUDY      80  41  25  CALM    30.01F
#HEPPNER 15SE   N/A         80  45  29  CALM    29.91F
#LONG CREEK HS  N/A         79  42  27  CALM    29.95F
#PIKES PEAK     N/A         77  43  30  W5      27.99S
#TOLLGATE       N/A         68  43  40  NE2     29.95F
#TROY SCHOOL    N/A         83  48  30  CALM    29.69F
#UKIAH          N/A         80  47  31  CALM    29.83F
#WESTON 4E      N/A         79  44  29  SE8     29.74F
$$

ORZ505-282310-
JOHN DAY BASIN

CITY            SKY/WX      TMP DP  RH  WIND    PRES   REMARKS
JOHN DAY        PTCLDY      82  41  23  E3      29.99F
#JOHN DAY KJDY  N/A         85  85  100 E2      30.07F
#DAYVILLE SCHOOLN/A         82  47  29  CALM    29.90F
#MITCHELL       N/A         82  50  33  CALM    30.10F
#MITCHELL 8NW   N/A         80  40  24  SW3     29.95F
#MONUMENT HS    N/A         85  41  21  N3      29.90F
#MT. VERNON 5SE N/A         79  42  27  N1      29.96F
#SPRAY SCHOOL   N/A         86  N/A N/A CALM    N/A
$$

ORZ506-282310-
OCHOCO AND JOHN DAY HIGHLANDS

CITY            SKY/WX      TMP DP  RH  WIND    PRES   REMARKS
#PINE MTN OBS   N/A         67  38  34  SE22G33 N/A
#PRAIRIE CITY   N/A         87  47  25  CALM    29.71F
#SENECA         N/A         81  N/A N/A SE2     N/A
#SENECA 9NW     N/A         81  41  24  SW3     29.83S
$$

ORZ049-282310-
GRANDE RONDE VALLEY

CITY            SKY/WX      TMP DP  RH  WIND    PRES   REMARKS
LA GRANDE       CLOUDY      81  41  24  CALM    29.96F
#COVE           N/A         82  51  34  NW3     29.98F
#COVE SCHOOL    N/A         82  48  31  CALM    29.99F
#COVE 6NW       N/A         81  47  30  CALM    29.88F
#ELGIN 3N       N/A         81  42  25  CALM    29.94F
#ELGIN 1E       N/A         81  47  30  CALM    N/A
#ISLAND CITY 4N N/A         77  60  56  CALM    29.86F
#LA GRANDE ELEM N/A         80  45  29  E1      29.99F
#UNION 1S       N/A         81  47  30  W1      29.73F
$$

ORZ050-282310-
WALLOWA COUNTY

CITY            SKY/WX      TMP DP  RH  WIND    PRES   REMARKS
#ENTERPRISE HS  N/A         73  49  43  CALM    30.05F
#IMNAHA SCHOOL  N/A         81  44  27  N3      29.96S
#IMNAHA 10S     N/A         67  41  39  S1      30.06S
#JOSEPH 3N      N/A         72  46  39  CALM    30.07F
#JOSEPH 3W      N/A         73  42  33  E1      29.94F
#LOSTINE        N/A         75  50  41  E1      29.67F
#MT HOWARD 8000 N/A         58  34  40  S3      30.32F
#PROMISE 1S     N/A         76  47  36  N3      29.95F
#WALLOWA SCHOOL N/A         79  47  32  CALM    29.96F



$$



USA.gov is the U.S. government's official web portal to all federal, state and local government web resources and services.